THOR AGENA B DEB, 2092

Orbit data source: Space-Track

THOR AGENA B DEB, 2092 is space debris in LEO originally from a launch on Mon, 29 Nov 1965 UTC launched from the Air Force Western Test Range (AFWTR). Debris objects in space refer to the collection of defunct objects orbiting the Earth. Examples of debris include non-operational satellites, rocket bodies, and fragments generated from explosions, collisions, or faulty payload assembly.

Loading next visibility...
Identifier
2092, 1965-098H
Orbit
LEO
Country
Flag of USUS
Related business
Manufacturer
Unknown
Mission
Spacecraft
Bus & Motor
Unknown
Mass
~1 kg wet, ~1 kg dry
Launch date (UTC)
1965-11-29 (60 years ago)
Launch vehicle
Unknown
Launch site
Air Force Western Test Range (AFWTR)
Object type
Payload
Rocket body
Debris
Shape & HBR
Unknown
Radar Cross Section
Small (<0.1 m²)

Expand to show TLE details & history
Last TLE update: 1 day ago

TLE from 1 day ago
0 THOR AGENA B DEB
1 02092U 65098H   26035.65332462  .00000923  00000-0  29878-3 0  9999
2 02092  79.8622 114.1048 1297449  18.7818 345.6836 12.34854093664063
Epoch: 2026-02-04T15:40Z
TLE epoch observation values (Epoch: 2026-02-04T15:40:47.247Z)
Latitude
-0.00008°
Longitude
104.09111°
Altitude
546.933 km
Speed
8.047 km/s
True Right ascension
07h 36m 25s
True Declination
0° 00' 00"
Sunlit
Object was in full shadow at epoch
Visualization orbit readout
Latitude
Unknown
Longitude
Unknown
Altitude
Unknown
Speed
Unknown
Apparent Right ascension
Unknown
Apparent Declination
Unknown
Sunlit
N/A
Visualization observer readout
Local Sidereal Time
22:47:48
Azimuth
Unknown
Elevation
Unknown
Doppler factor
Unknown
Orbital elements
Apogee altitude
2,551.416 km
Perigee altitude
500.398 km
Semi-major axis
7,904.044 km
Eccentricity
0.12974
Inclination
79.8622°
RAAN
114.1048°
Arg. of periapsis
18.7818°
True anomaly
341.33222°
Mean anomaly
345.6836°
Eccentric anomaly
343.58255°
Mean motion
3.08865 °/min
Orbital period
116.56 mins
BSTAR
0.00029878
Loading maneuver chart data...
Computing Atmospheric mass density...
Loading historical data...
Loading historical data...
Loading historical data...
Loading historical data...
Loading historical data...
Loading historical data...
Loading historical data...

Documentation

Showing up to 5 results
|